• In Netherlands
  • List of Countries
  • For 7 days
  • Water Temperature
  • Satellite Maps
  • Weather Map
  • Weather Widgets
  • user-avatar
    Login

    Hourly Weather Djelfa

    Today, 30 April, Sunday

    Time Temperature Precipitation Wind Pressure Humidity
    00:00 +15°C° 0 mm 2 mps 663 mmHg 65%
    01:00 +15°C° 0.4 mm 2 mps 663 mmHg 66%
    02:00 +15°C° 0.4 mm 2 mps 663 mmHg 66%
    03:00 +15°C° 0.4 mm 2 mps 663 mmHg 67%
    04:00 +15°C° 0.3 mm 2 mps 663 mmHg 67%
    05:00 +15°C° 0.3 mm 2 mps 663 mmHg 68%
    06:00 +15°C° 0 mm 2 mps 663 mmHg 67%
    07:00 +16°C° 0 mm 2 mps 664 mmHg 60%
    08:00 +17°C° 0 mm 2 mps 664 mmHg 53%
    09:00 +18°C° 0 mm 2 mps 664 mmHg 46%
    10:00 +19°C° 0 mm 2 mps 664 mmHg 42%
    11:00 +21°C° 0 mm 2 mps 664 mmHg 38%
    12:00 +23°C° 0 mm 2 mps 664 mmHg 34%
    13:00 +22°C° 0 mm 3 mps 664 mmHg 33%
    14:00 +24°C° 0 mm 3 mps 664 mmHg 31%
    15:00 +24°C° 0 mm 3 mps 664 mmHg 30%
    16:00 +24°C° 0 mm 3 mps 664 mmHg 31%
    17:00 +22°C° 0 mm 3 mps 664 mmHg 32%
    18:00 +22°C° 0 mm 3 mps 664 mmHg 33%
    19:00 +21°C° 0 mm 3 mps 664 mmHg 38%
    20:00 +20°C° 0 mm 4 mps 664 mmHg 44%
    21:00 +18°C° 0 mm 4 mps 664 mmHg 49%
    22:00 +17°C° 0 mm 4 mps 664 mmHg 55%
    23:00 +17°C° 0 mm 3 mps 664 mmHg 60%

    Tomorrow, 1 May, Monday

    Time Temperature Precipitation Wind Pressure Humidity
    00:00 +16°C° 0 mm 3 mps 664 mmHg 65%
    01:00 +14°C° 0 mm 3 mps 664 mmHg 68%
    02:00 +14°C° 0 mm 3 mps 664 mmHg 71%
    03:00 +13°C° 0 mm 3 mps 664 mmHg 73%
    04:00 +14°C° 0 mm 2 mps 664 mmHg 74%
    05:00 +14°C° 0 mm 2 mps 664 mmHg 74%
    06:00 +14°C° 0 mm 2 mps 664 mmHg 74%
    07:00 +15°C° 0 mm 2 mps 665 mmHg 63%
    08:00 +17°C° 0 mm 2 mps 665 mmHg 52%
    09:00 +18°C° 0 mm 3 mps 666 mmHg 41%
    10:00 +19°C° 0 mm 2 mps 666 mmHg 38%
    11:00 +21°C° 0 mm 2 mps 666 mmHg 35%
    12:00 +23°C° 0 mm 2 mps 666 mmHg 32%
    13:00 +23°C° 0.3 mm 2 mps 666 mmHg 31%
    14:00 +24°C° 0.3 mm 2 mps 666 mmHg 30%
    15:00 +24°C° 0.3 mm 1 mps 665 mmHg 28%
    16:00 +24°C° 0.1 mm 2 mps 665 mmHg 29%
    17:00 +24°C° 0.1 mm 2 mps 665 mmHg 30%
    18:00 +23°C° 0.1 mm 2 mps 665 mmHg 30%
    19:00 +21°C° 0 mm 2 mps 666 mmHg 36%
    20:00 +20°C° 0 mm 3 mps 666 mmHg 42%
    21:00 +19°C° 0 mm 3 mps 666 mmHg 48%
    22:00 +18°C° 0.1 mm 2 mps 666 mmHg 54%
    23:00 +17°C° 0.1 mm 2 mps 666 mmHg 60%

    Day after tomorrow, 2 May, Tuesday

    Time Temperature Precipitation Wind Pressure Humidity
    00:00 +16°C° 0.1 mm 2 mps 665 mmHg 65%
    01:00 +16°C° 0.1 mm 2 mps 665 mmHg 68%
    02:00 +15°C° 0.1 mm 2 mps 665 mmHg 70%
    03:00 +15°C° 0.1 mm 2 mps 665 mmHg 73%
    04:00 +15°C° 0.3 mm 2 mps 665 mmHg 73%
    05:00 +15°C° 0.3 mm 2 mps 665 mmHg 73%
    06:00 +15°C° 0.3 mm 2 mps 665 mmHg 73%
    07:00 +16°C° 0 mm 3 mps 665 mmHg 64%
    08:00 +18°C° 0 mm 3 mps 666 mmHg 56%
    09:00 +20°C° 0 mm 4 mps 667 mmHg 48%
    10:00 +21°C° 0.4 mm 4 mps 666 mmHg 44%
    11:00 +22°C° 0.4 mm 4 mps 666 mmHg 41%
    12:00 +23°C° 0.4 mm 4 mps 666 mmHg 38%
    13:00 +23°C° 0.7 mm 4 mps 666 mmHg 38%
    14:00 +24°C° 0.7 mm 3 mps 665 mmHg 37%
    15:00 +24°C° 0.7 mm 3 mps 665 mmHg 37%
    16:00 +22°C° 0.8 mm 3 mps 665 mmHg 40%
    17:00 +22°C° 0.8 mm 3 mps 665 mmHg 42%
    18:00 +21°C° 0.8 mm 3 mps 665 mmHg 44%
    19:00 +20°C° 0.7 mm 3 mps 665 mmHg 50%
    20:00 +19°C° 0.7 mm 3 mps 665 mmHg 55%
    21:00 +18°C° 0.7 mm 3 mps 666 mmHg 60%
    22:00 +18°C° 1.2 mm 4 mps 666 mmHg 62%
    23:00 +17°C° 1.2 mm 4 mps 666 mmHg 64%

    3 May, Wednesday

    Time Temperature Precipitation Wind Pressure Humidity
    00:00 +16°C° 1.2 mm 5 mps 666 mmHg 66%
    01:00 +17°C° 0.7 mm 4 mps 665 mmHg 67%
    02:00 +15°C° 0.7 mm 4 mps 665 mmHg 67%
    03:00 +15°C° 0.7 mm 4 mps 665 mmHg 68%
    04:00 +15°C° 0.2 mm 4 mps 665 mmHg 68%
    05:00 +15°C° 0.2 mm 4 mps 665 mmHg 68%
    06:00 +15°C° 0.2 mm 4 mps 665 mmHg 68%
    07:00 +16°C° 0.1 mm 5 mps 665 mmHg 62%
    08:00 +19°C° 0.1 mm 6 mps 666 mmHg 57%
    09:00 +20°C° 0.1 mm 6 mps 666 mmHg 51%
    10:00 +21°C° 0.1 mm 6 mps 666 mmHg 47%
    11:00 +22°C° 0.1 mm 6 mps 666 mmHg 43%
    12:00 +23°C° 0.1 mm 5 mps 666 mmHg 39%
    13:00 +25°C° 0.1 mm 5 mps 666 mmHg 37%
    14:00 +25°C° 0.1 mm 4 mps 666 mmHg 36%
    15:00 +25°C° 0.1 mm 3 mps 665 mmHg 34%
    16:00 +24°C° 1.2 mm 3 mps 665 mmHg 39%
    17:00 +22°C° 1.2 mm 3 mps 665 mmHg 43%
    18:00 +21°C° 1.2 mm 3 mps 664 mmHg 48%
    19:00 +20°C° 1.5 mm 4 mps 665 mmHg 53%
    20:00 +19°C° 1.5 mm 5 mps 665 mmHg 59%
    21:00 +17°C° 1.5 mm 5 mps 665 mmHg 64%
    22:00 +17°C° 0.8 mm 6 mps 665 mmHg 65%
    23:00 +17°C° 0.8 mm 6 mps 665 mmHg 66%

    4 May, Thursday

    Time Temperature Precipitation Wind Pressure Humidity
    00:00 +16°C° 0.8 mm 6 mps 665 mmHg 67%
    01:00 +16°C° 0.1 mm 5 mps 665 mmHg 66%
    02:00 +16°C° 0.1 mm 5 mps 664 mmHg 66%
    03:00 +15°C° 0.1 mm 4 mps 664 mmHg 65%
    04:00 +17°C° 0 mm 4 mps 664 mmHg 64%
    05:00 +17°C° 0 mm 4 mps 664 mmHg 63%
    06:00 +17°C° 0 mm 3 mps 664 mmHg 62%
    07:00 +19°C° 0 mm 4 mps 664 mmHg 54%
    08:00 +21°C° 0 mm 5 mps 665 mmHg 46%
    09:00 +23°C° 0 mm 5 mps 665 mmHg 38%
    10:00 +25°C° 0 mm 5 mps 665 mmHg 34%
    11:00 +26°C° 0 mm 5 mps 665 mmHg 30%
    12:00 +28°C° 0 mm 5 mps 665 mmHg 26%
    13:00 +28°C° 0 mm 5 mps 665 mmHg 25%
    14:00 +28°C° 0 mm 4 mps 664 mmHg 23%
    15:00 +29°C° 0 mm 4 mps 664 mmHg 22%
    16:00 +28°C° 0 mm 4 mps 664 mmHg 23%
    17:00 +28°C° 0 mm 4 mps 664 mmHg 25%
    18:00 +27°C° 0 mm 3 mps 664 mmHg 27%
    19:00 +26°C° 0 mm 4 mps 664 mmHg 28%
    20:00 +25°C° 0 mm 4 mps 664 mmHg 29%
    21:00 +23°C° 0 mm 4 mps 664 mmHg 31%
    22:00 +22°C° 0 mm 4 mps 664 mmHg 32%
    23:00 +22°C° 0 mm 4 mps 664 mmHg 33%

    5 May, Friday

    Time Temperature Precipitation Wind Pressure Humidity
    00:00 +21°C° 0 mm 5 mps 664 mmHg 34%
    01:00 +20°C° 0 mm 5 mps 664 mmHg 35%
    02:00 +20°C° 0 mm 4 mps 664 mmHg 36%
    03:00 +19°C° 0 mm 4 mps 663 mmHg 37%
    04:00 +19°C° 0 mm 4 mps 664 mmHg 38%
    05:00 +19°C° 0 mm 4 mps 664 mmHg 38%
    06:00 +19°C° 0 mm 4 mps 664 mmHg 39%
    07:00 +21°C° 0 mm 5 mps 664 mmHg 35%
    08:00 +23°C° 0 mm 6 mps 665 mmHg 31%
    09:00 +26°C° 0 mm 7 mps 666 mmHg 27%
    10:00 +27°C° 0 mm 7 mps 665 mmHg 24%
    11:00 +28°C° 0 mm 8 mps 665 mmHg 22%
    12:00 +29°C° 0 mm 8 mps 665 mmHg 20%
    13:00 +31°C° 0 mm 8 mps 665 mmHg 19%
    14:00 +31°C° 0 mm 8 mps 665 mmHg 18%
    15:00 +31°C° 0 mm 8 mps 664 mmHg 17%
    16:00 +30°C° 0 mm 7 mps 664 mmHg 18%
    17:00 +29°C° 0 mm 6 mps 664 mmHg 19%
    18:00 +28°C° 0 mm 5 mps 664 mmHg 20%
    19:00 +27°C° 0 mm 5 mps 664 mmHg 21%
    20:00 +26°C° 0 mm 5 mps 664 mmHg 22%
    21:00 +24°C° 0 mm 6 mps 664 mmHg 23%
    22:00 +23°C° 0 mm 5 mps 664 mmHg 25%
    23:00 +23°C° 0 mm 5 mps 664 mmHg 26%
    Show more